EW0401 Weather Reports


Display with metric or nautical units.
time (UTC)temp
F
wind
direction
speed
MPH
gust
MPH
rain 1hr
in
rain 24hr
in
rain mn
in
humidity
%
barometer
mb
20260502184550 74 360 1.0 5.0 0.00 1.25 0.00 53 1019.9
20260502183054 73 0 1.0 6.0 0.00 1.25 0.00 54 1020.3
20260502181552 72 19 1.0 10.0 0.00 1.25 0.00 55 1020.4
20260502163100 69 19 2.0 11.0 0.00 2.15 0.00 65 1020.6
20260502161633 68 15 1.0 6.0 0.00 2.15 0.00 69 1020.6
20260502151610 65 0 0.0 6.0 0.00 2.15 0.00 78 1020.8
20260502130103 56 28 0.0 2.0 0.00 2.22 0.00 90 1019.4
20260502123053 54 0 0.0 4.0 0.00 2.26 0.00 90 1019.0
20260502121556 53 0 0.0 2.0 0.00 2.26 0.00 90 1019.1
20260502121031 54 300 0.0 1.0 0.00 2.25 0.00 91 1018.8
20260502120541 54 300 0.0 2.0 0.00 2.26 0.00 91 1018.7
20260502120145 53 300 0.0 2.0 0.00 2.25 0.00 91 1018.6
20260502115528 53 299 1.0 2.0 0.00 2.26 0.00 91 1018.6
20260502114554 53 0 0.0 0.0 0.00 2.26 0.00 90 1018.8
20260502113055 53 0 0.0 3.0 0.00 2.26 0.00 90 1018.4
20260502111550 53 12 0.0 5.0 0.00 2.26 0.00 90 1018.2
20260502104553 53 0 0.0 2.0 0.00 2.29 0.00 90 1017.7
20260502103107 53 0 0.0 8.0 0.00 2.29 0.00 89 1017.4
20260502101557 53 0 0.0 4.0 0.00 2.29 0.00 90 1017.0
20260502100104 53 0 1.0 5.0 0.00 2.29 0.00 90 1016.7
20260502090113 53 0 0.0 2.0 0.00 2.33 0.00 89 1016.4
20260502070106 54 61 1.0 13.0 0.00 2.56 0.00 91 1016.1
20260502064610 55 65 2.0 11.0 0.00 2.70 0.00 91 1016.0
20260502063055 55 82 1.0 7.0 0.00 2.70 0.00 91 1015.8
20260502061553 55 0 1.0 6.0 0.00 2.70 0.00 91 1015.9
20260502060056 55 0 2.0 8.0 0.00 2.70 0.00 91 1015.8
20260502054559 55 0 1.0 9.0 0.00 2.76 0.00 91 1016.0
20260502053054 55 61 0.0 9.0 0.00 2.76 0.00 91 1016.3
20260502051553 55 60 2.0 9.0 0.00 2.76 0.00 91 1016.4
20260502050059 55 61 2.0 9.0 0.00 2.76 0.00 91 1016.3
20260502044556 55 63 1.0 9.0 0.00 2.76 2.76 92 1016.1
20260502043054 55 0 0.0 2.0 0.00 2.76 2.76 92 1016.2
20260502041559 55 15 0.0 9.0 0.02 2.76 2.76 92 1016.0
20260502040050 55 0 0.0 8.0 0.02 2.76 2.76 92 1016.0
20260502034553 55 0 1.0 5.0 0.04 2.76 2.76 92 1015.2
20260502033101 56 0 1.0 9.0 0.05 2.76 2.76 92 1014.7
20260502031603 56 0 1.0 9.0 0.03 2.74 2.74 92 1014.6
20260502030058 56 0 1.0 8.0 0.04 2.74 2.74 92 1014.3
20260502024607 56 42 2.0 8.0 0.02 2.85 2.72 92 1014.6
20260502023121 57 0 1.0 4.0 0.01 2.84 2.71 92 1014.6
20260502021557 57 301 1.0 6.0 0.02 2.84 2.71 92 1014.2
20260502020056 57 0 1.0 5.0 0.01 2.83 2.70 92 1013.7
20260502014553 57 327 1.0 5.0 0.03 2.86 2.70 92 1013.4
20260502013057 57 0 0.0 6.0 0.07 2.85 2.69 92 1013.2
20260502011556 57 32 1.0 8.0 0.10 2.85 2.69 92 1012.3
20260502010052 57 0 1.0 5.0 0.11 2.85 2.69 92 1011.5
20260502004600 58 0 1.0 5.0 0.11 2.83 2.67 92 1011.9
20260502003054 58 346 1.0 8.0 0.07 2.78 2.62 92 1011.9
20260502001624 58 0 1.0 10.0 0.04 2.75 2.59 92 1011.1
20260502000110 58 0 3.0 10.0 0.03 2.74 2.58 92 1011.5
20260501234556 58 5 0.0 7.0 0.03 2.72 2.56 92 1012.3
20260501233102 59 10 0.0 5.0 0.10 2.71 2.55 92 1011.1
20260501231609 59 0 2.0 6.0 0.13 2.71 2.55 92 1010.9
20260501230106 59 71 1.0 7.0 0.14 2.71 2.55 92 1011.1
20260501224612 59 69 1.0 6.0 0.13 2.68 2.52 92 1011.7
20260501223100 59 0 0.0 3.0 0.08 2.60 2.44 92 1012.0
20260501221557 59 66 0.0 5.0 0.12 2.58 2.42 92 1011.9
20260501220058 60 102 0.0 4.0 0.23 2.57 2.41 92 1011.2
20260501214558 60 58 1.0 4.0 0.26 2.55 2.39 92 1011.3
20260501213053 60 0 0.0 5.0 0.29 2.52 2.35 92 1011.2
20260501211550 60 77 0.0 6.0 0.28 2.46 2.30 92 1011.0
20260501210051 61 0 0.0 7.0 0.26 2.33 2.18 92 1012.1
20260501204549 61 0 0.0 7.0 0.23 2.33 2.13 92 1010.6
20260501203052 61 0 2.0 7.0 0.21 2.27 2.07 92 1009.3
20260501201554 61 0 3.0 8.0 0.43 2.22 2.02 92 1009.7
20260501200052 61 71 0.0 5.0 0.40 2.11 1.92 92 1010.5
20260501194601 61 29 2.0 10.0 0.38 2.09 1.90 92 1009.0
20260501193050 61 76 1.0 5.0 0.34 2.06 1.86 92 1010.0
20260501191555 61 285 1.0 12.0 0.08 1.79 1.59 92 1011.2
20260501190050 61 60 0.0 10.0 0.01 1.72 1.52 92 1010.4